Showing default

KINEIS-1C, 60081

Orbit data source: Space-Track

KINEIS-1C, 60081 is a French payload satellite in SSO that was launched on Thu, 20 Jun 2024 UTC via an ELECTRON launch vehicle from the Rocket Lab Launch Complex (RLLC). Payload-class satellites include a variety of spacecraft equipped with specific instruments for various scientific and technological missions. These include communications satellites like Starlink; space stations such as the ISS; scientific satellites like the Hubble; Earth observation satellites from companies like Planet Labs, Umbra, and HawkEye 360; GPS; miniature CubeSats for education and research; and military/defense satellites.

Loading next visibility...
Identifier
60081, 2024-114C
Orbit
SSO
Last TLE update
7 hours ago
Origin
Manufacturer
KINEIS
Mission
Operational Commercial Communications
Bus & Motor
CUBESAT 16U, Unknown motor
Mass
28 kg wet, 28 kg dry
Launch date (UTC)
2024-06-20 (1 year ago)
Launch vehicle
ELECTRON
Launch site
Rocket Lab Launch Complex (RLLC)
Object type
Payload
Rocket body
Debris
Shape & HBR
Box + 2 Pan + 1 Ant, 1.6 m
Radar Cross Section
0.229 m², Medium (>0.1 m² and < 1m²)

Expand to show TLE details & history

TLE from 7 hours ago
0 KINEIS-1C
1 60081U 24114C   25183.85757140  .00001685  00000-0  23234-3 0  9990
2 60081  98.0092 204.1714 0001002 140.9720 219.1564 14.79528064 55701
Epoch: 2025-07-02T20:34Z
TLE epoch observation values (Epoch: 2025-07-02T20:34:54.168Z)
Latitude
-0.00003°
Longitude
-25.68695°
Altitude
634.376 km
Speed
7.541 km/s
True Right ascension
13h 36m 41s
True Declination
0° 00' 00"
Sunlit
Object was in daylight at epoch
Visualization orbit readout
Latitude
19.79247°
Longitude
157.49923°
Altitude
632.728 km
Speed
7.544 km/s
Apparent Right ascension
02h 33m 24s
Apparent Declination
-8° 40' 26"
Sunlit
Object is in daylight
Visualization observer readout
Local Sidereal Time
15:32:56
Azimuth
27.048° NE
Elevation
-56.051°
Doppler factor
1
Orbital elements
Apogee altitude
628.563 km
Perigee altitude
627.159 km
Semi-major axis
7,005.998 km
Eccentricity
0.0001
Inclination
98.0092°
RAAN
204.1714°
Arg. of periapsis
140.972°
True anomaly
Unknown
Mean anomaly
219.1564°
Eccentric anomaly
Unknown
Mean motion
3.70116 °/min
Orbital period
97.27 mins
BSTAR
0.00023234
Loading maneuver chart data...
Loading SW <> Apogee altitude chart data...
Loading historical data...
Loading historical data...
Loading historical data...
Loading historical data...
Loading historical data...
Loading historical data...
Loading historical data...

KINEIS-1C Visibility forecast

Observer location: undefined°, undefined°

Span
Click to sort rows by Start time (UTC) header in descending order
Start Az.
Max El. time (UTC)
Max El. Az.
Max El.
End time (UTC)
End Az.
6 mins2025-07-03 13:23:42.105Z43.812° NE2025-07-03 13:26:42.105Z89.786° E21.389°2025-07-03 13:29:42.105Z141.429° SSE
6 mins2025-07-03 15:00:42.105Z339.962° N2025-07-03 15:03:42.105Z278.388° WNW25.767°2025-07-03 15:06:42.105Z232.379° WSW
4 mins2025-07-04 00:20:42.105Z95.305° ESE2025-07-04 00:22:42.105Z61.139° ENE17.879°2025-07-04 00:24:42.105Z29.927° NE
6 mins2025-07-04 01:55:42.105Z202.402° SSW2025-07-04 01:58:42.105Z270.413° WNW31.321°2025-07-04 02:01:42.105Z325.491° NNW
|